Location: Pensacola
(30.4142°N, 87.2155°W)
Time: 23:46:02
(UTC-05:00)

OTV 5 (USA 277) - Visible Passes

Search period start: 23 September 2017 00:00
Search period end: 03 October 2017 00:00
Orbit: 404 x 417 km, 43.0° (Epoch: 07 September)

Date Brightness Start Highest point End Pass type
(mag) Time Alt. Az. Time Alt. Az. Time Alt. Az.
23 Sep ? 05:12:11 10° NNW 05:12:38 10° N 05:13:10 10° N visible
26 Sep ? 05:53:42 10° NNW 05:55:23 13° NNE 05:57:04 10° NE visible
27 Sep ? 05:03:16 10° N 05:04:05 11° N 05:05:06 10° NNE visible
28 Sep ? 05:48:13 10° NNW 05:50:55 23° NNE 05:53:36 10° ENE visible
29 Sep ? 04:59:09 16° N 04:59:42 17° NNE 05:01:57 10° ENE visible
30 Sep ? 05:43:38 14° NW 05:46:14 53° NNE 05:49:27 10° ESE visible
01 Oct ? 04:55:28 32° NE 04:55:28 32° NE 04:58:09 10° E visible
02 Oct ? 05:40:13 30° W 05:41:22 46° SW 05:44:32 10° SE visible
